Theta_e
311 310 310 310 314 315 314 314 314 314 314 313 314 315 315 315 316 315 316 319 319 319 321 322 321 317 320 319 320 320 319 317 314 317 320 321 323 322 326 325 323 319 321
310 308 308 310 312 311 311 311 312 313 313 313 313 314 315 315 315 314 316 319 320 321 322 321 320 322 317 319 317 317 317 318 317 314 321 320 320 321 315 314 316 319 317
307 306 306 307 307 307 307 309 310 310 310 311 313 312 312 313 314 316 317 318 318 319 320 322 321 321 318 316 318 318 319 321 321 319 319 317 315 313 313 312 312 311 316
305 304 304 304 303 304 305 306 307 308 308 308 309 311 312 313 314 316 315 314 313 316 317 318 319 321 321 319 319 321 320 320 319 318 313 311 309 309 309 308 305 306 308
304 303 303 303 303 304 304 305 306 306 307 307 308 309 310 311 313 312 313 312 312 312 315 319 320 320 320 319 319 320 320 317 313 310 306 306 305 305 305 307 306 305 306
303 303 304 304 304 304 304 304 304 304 305 306 307 308 308 311 307 306 308 310 311 312 312 313 316 318 319 314 314 314 318 317 313 310 308 305 303 304 306 306 305 303 302
302 304 305 305 305 304 305 304 303 302 303 303 303 304 305 305 304 302 304 307 309 310 311 312 315 319 316 320 312 312 311 310 313 311 306 301 301 306 307 306 306 304 304
300 301 303 303 303 304 302 301 300 299 298 300 300 302 303 304 302 300 302 305 307 310 311 312 312 312 314 311 316 316 317 314 313 306 304 304 306 308 309 309 306 305 303
297 298 300 300 299 299 299 298 298 296 297 297 298 300 300 301 301 300 301 306 306 308 311 312 314 314 306 303 314 316 313 311 305 303 303 302 301 302 307 308 305 300 299
294 296 297 297 297 297 297 297 298 297 298 299 299 300 301 300 298 298 300 305 306 307 310 312 307 312 302 300 312 312 308 306 308 305 305 303 302 302 303 309 305 301 300
294 294 294 294 294 295 295 296 296 297 298 298 299 300 300 300 300 298 298 303 305 308 309 312 314 299 299 299 301 311 308 310 308 309 308 307 306 306 305 305 305 304 302
291 291 291 291 292 294 293 294 294 294 294 294 296 298 300 300 298 297 297 297 300 306 309 312 311 301 296 297 299 301 299 303 309 309 307 306 305 306 306 306 306 306 306
289 289 290 291 292 292 292 292 292 293 294 296 296 297 297 299 299 297 296 296 297 300 309 308 303 302 299 298 296 298 295 305 306 306 306 306 306 308 306 305 306 306 306
287 288 289 289 290 291 293 294 293 292 293 295 297 296 297 297 298 299 298 298 297 299 303 304 304 303 302 304 305 300 305 305 307 307 307 308 306 304 305 305 304 303 304
287 288 288 289 289 289 291 291 292 295 295 294 294 295 295 296 297 297 297 298 297 299 300 299 300 303 305 307 307 309 305 305 306 309 308 306 305 305 305 304 303 303 303
286 287 287 288 288 289 289 289 291 292 293 293 293 294 296 294 293 293 293 292 293 293 297 296 298 301 303 304 306 308 308 306 307 308 306 306 305 305 304 304 303 303 303
286 286 287 287 287 287 288 288 287 290 292 292 291 291 292 293 293 293 293 292 290 291 297 294 295 299 303 305 307 309 309 309 308 306 306 305 305 304 301 303 303 304 304
285 287 286 286 287 287 288 288 288 288 287 289 292 292 292 291 291 291 291 290 294 294 296 296 293 295 298 301 305 307 309 309 307 306 305 305 304 304 303 303 304 303 304
285 286 287 288 288 288 288 288 288 288 288 289 290 291 291 291 290 290 290 294 295 295 296 296 296 295 296 297 300 305 308 307 307 306 305 305 304 303 303 304 303 293 297
287 288 289 290 290 289 289 288 288 288 288 289 290 290 291 289 289 290 291 293 295 296 296 296 297 296 296 296 297 300 304 304 304 305 305 305 304 304 304 304 304 304 304
289 292 290 294 293 292 291 291 291 291 290 290 290 291 288 290 289 290 291 292 293 294 296 296 297 297 297 297 297 298 300 304 304 305 305 305 304 304 305 305 305 306 309
290 291 291 290 291 291 291 292 292 292 293 294 295 291 286 290 290 290 290 292 294 295 296 296 295 296 296 297 298 299 299 302 304 305 304 304 305 306 306 306 308 309 310
289 288 288 288 289 288 289 289 289 290 290 293 294 292 290 290 291 291 292 293 294 295 296 296 296 295 297 298 301 301 301 303 305 305 304 305 306 307 307 307 309 309 310
287 287 286 286 286 286 286 286 287 287 288 290 292 294 293 292 292 292 294 295 295 295 295 296 297 296 297 299 300 302 306 305 306 308 307 305 304 301 306 307 309 310 311
285 285 284 284 284 284 284 284 285 285 286 287 288 290 294 294 294 294 295 296 296 296 296 296 297 296 295 296 298 303 301 291 304 299 306 306 306 307 307 308 309 312 313
283 283 283 283 282 282 282 282 283 283 283 285 286 287 288 290 295 296 296 297 297 297 297 297 297 295 295 297 299 296 290 289 297 290 304 306 305 306 307 310 311 312 312
Wind_Speed
7 5 5 4 4 5 4 4 6 4 5 4 4 4 4 6 5 5 7 8 7 9 11 10 11 5 7 5 5 6 7 5 6 4 1 1 3 5 5 5 4 1 2
7 6 7 6 6 5 6 6 5 5 4 5 5 5 5 6 6 6 7 7 8 10 12 10 13 6 8 8 7 9 9 9 8 11 4 4 5 5 3 2 0 2 3
6 7 6 6 6 7 7 7 6 6 7 6 5 6 6 6 6 6 6 6 8 9 10 10 12 10 10 8 10 10 9 10 10 10 10 3 5 3 3 1 0 3 2
4 4 6 7 8 7 7 7 7 7 7 7 7 6 6 6 6 6 7 7 7 8 9 9 11 12 13 13 12 12 11 8 6 4 2 2 3 2 3 2 3 2 3
6 7 9 8 8 7 8 8 7 7 7 7 6 5 6 5 5 7 7 9 9 10 10 9 10 14 18 13 9 13 10 8 4 4 2 1 2 2 2 2 1 3 3
5 7 8 8 7 7 8 8 7 8 8 7 7 7 6 4 8 11 10 10 11 10 11 9 9 11 10 14 16 12 11 9 6 4 3 4 4 3 3 3 2 1 3
7 8 8 8 9 9 9 9 10 11 9 8 8 7 8 7 11 11 13 9 11 10 10 8 9 4 6 7 12 14 10 11 15 13 9 6 5 7 6 5 4 3 3
8 9 9 10 11 12 9 9 9 7 9 9 10 9 8 7 11 11 14 9 11 11 10 11 7 8 4 3 2 7 12 12 10 6 9 8 6 9 7 5 5 2 2
8 8 8 6 9 9 9 8 8 6 8 8 7 10 9 8 12 11 9 9 10 11 11 8 7 7 7 6 3 1 6 9 4 3 5 8 11 11 8 5 2 2 3
10 11 11 11 13 14 13 12 12 9 12 9 12 12 14 10 11 12 11 7 10 9 9 9 12 7 4 5 3 6 11 6 5 3 3 3 5 5 8 5 5 4 3
10 12 14 14 14 14 15 13 12 13 13 15 16 13 12 11 11 16 16 10 7 9 9 7 6 11 9 6 8 5 7 7 6 5 3 3 0 3 4 5 6 4 4
12 15 14 13 12 12 14 13 13 12 13 14 14 13 11 12 14 13 16 16 12 10 10 6 5 10 11 9 6 8 8 4 3 4 2 3 4 4 5 5 6 5 4
14 14 14 14 13 13 13 14 12 11 11 10 11 10 7 7 9 15 16 15 14 9 8 8 10 7 6 5 14 8 8 4 4 4 4 4 4 4 2 3 4 5 7
15 14 13 13 14 13 9 9 9 10 10 9 9 8 7 8 8 7 5 6 11 8 8 4 6 4 6 5 5 14 7 5 3 3 4 3 3 3 4 4 2 1 2
14 13 12 11 12 11 10 10 10 11 10 9 9 10 10 8 7 8 8 5 4 7 6 3 1 3 4 4 2 1 1 4 6 5 5 5 4 4 4 4 2 1 0
13 11 10 10 10 9 10 11 15 18 20 18 19 14 11 10 10 9 8 7 9 9 2 3 4 4 4 4 4 4 4 5 5 5 4 4 4 4 4 3 2 2 3
13 13 11 12 10 10 9 9 11 9 16 19 18 18 18 17 11 13 11 7 9 11 5 4 4 5 5 5 5 6 5 7 5 5 4 4 4 3 3 3 4 3 4
14 22 12 10 9 9 9 9 8 9 10 8 10 14 14 14 16 15 11 8 3 1 2 3 3 4 4 4 4 5 6 5 6 5 4 4 5 4 3 4 4 4 4
12 11 10 9 9 11 9 9 9 9 9 9 7 9 12 13 10 11 13 10 9 6 4 4 3 4 4 3 3 4 5 6 6 6 5 5 5 4 5 5 4 4 3
11 18 16 9 8 7 7 8 8 8 8 8 8 7 5 6 6 8 7 8 9 9 8 7 5 4 4 4 3 2 3 4 4 4 4 5 4 5 5 5 4 5 5
9 9 9 7 5 6 6 7 7 7 8 8 8 6 7 6 7 6 7 8 8 7 7 7 6 6 4 3 4 3 4 4 4 5 5 4 4 4 5 4 5 5 4
8 8 8 8 7 7 8 7 7 8 8 9 5 3 7 6 5 6 7 7 8 10 10 8 6 6 5 4 5 4 4 4 5 5 4 4 5 5 4 3 4 4 4
8 9 8 8 8 9 8 8 8 9 9 10 5 2 2 4 5 5 6 7 7 7 8 9 8 6 6 6 5 5 4 5 7 6 6 5 5 5 4 3 3 2 4
9 10 10 9 9 9 9 9 9 11 10 10 9 3 1 3 4 5 4 5 5 7 8 8 8 10 8 8 5 6 5 4 5 8 10 7 6 5 3 2 3 5 4
10 10 10 10 10 9 9 9 9 10 9 9 9 9 6 1 2 3 3 3 5 6 7 8 8 9 9 8 7 8 5 6 4 8 5 7 7 6 3 3 5 5 5
10 11 10 9 10 10 10 10 10 10 10 10 9 9 8 7 3 3 3 4 4 4 6 6 7 8 8 7 10 7 5 6 6 2 4 5 5 4 3 5 8 4 5
Wind_Direction
167 167 157 173 170 155 172 195 199 197 199 206 218 243 263 279 283 295 288 283 285 289 287 271 261 212 216 214 207 202 207 206 213 267 200 201 219 214 221 220 232 227 302
186 180 184 182 173 187 212 219 214 232 233 224 216 223 246 261 272 275 282 287 285 287 283 281 269 238 215 214 214 213 212 215 222 233 251 225 205 224 179 164 295 24 10
197 197 199 199 206 224 232 236 224 225 237 248 232 227 237 241 250 255 259 272 279 277 277 273 268 254 236 220 218 217 224 237 229 226 223 160 194 181 89 66 291 350 331
263 229 214 225 225 228 232 238 239 234 228 224 223 226 233 242 242 242 246 260 268 275 270 263 262 258 249 241 233 225 216 205 199 209 168 205 78 84 120 115 0 347 286
248 243 244 249 245 240 236 232 240 243 245 251 255 248 232 232 255 259 248 252 258 273 276 265 252 254 247 230 225 224 199 193 173 174 169 162 134 92 141 134 152 262 278
280 259 254 256 256 251 253 245 237 241 240 231 225 220 233 224 241 259 262 271 267 263 270 275 271 274 244 239 231 233 207 203 179 149 191 179 180 149 134 136 194 32 340
289 284 281 276 269 260 252 246 240 232 226 222 224 222 226 227 231 251 269 267 261 256 254 253 269 252 264 244 221 194 202 205 182 170 183 184 142 170 149 164 206 173 210
305 303 302 302 301 299 287 264 256 245 236 236 232 225 221 225 223 239 263 269 260 249 251 249 252 288 297 318 58 159 203 198 202 194 173 169 158 157 155 161 171 196 297
304 295 295 293 296 294 289 279 274 265 258 245 231 229 225 227 223 236 257 268 261 249 251 220 238 257 294 348 32 169 202 207 166 166 99 154 144 149 146 119 169 108 303
293 289 289 284 279 276 273 268 267 254 262 255 251 234 229 229 226 239 246 257 264 256 247 234 211 231 239 71 86 209 205 183 159 147 129 97 140 157 171 184 153 178 182
288 293 292 287 283 280 278 277 276 274 268 263 258 246 237 230 238 226 238 248 248 254 246 233 226 196 178 195 206 221 215 156 149 143 176 127 167 192 193 211 195 167 177
297 290 287 288 286 284 283 279 275 273 272 272 270 266 254 250 238 235 240 242 236 250 245 224 221 180 184 204 220 224 198 110 122 127 163 180 172 216 220 215 216 214 221
293 290 286 285 285 283 282 277 271 268 268 265 261 249 237 233 241 234 238 243 249 244 251 240 198 183 257 233 206 183 175 200 179 152 185 205 193 194 177 229 237 228 237
294 293 294 293 291 286 286 287 276 267 266 268 261 246 244 242 231 229 231 248 247 244 252 252 229 208 164 216 213 177 186 150 178 188 194 183 123 162 197 196 221 179 256
298 296 290 284 283 285 273 271 269 264 252 253 254 255 256 246 237 232 238 237 223 213 212 167 194 194 173 209 155 222 129 147 198 204 204 197 180 167 208 179 207 179 108
295 292 287 287 283 279 278 280 264 267 271 261 251 252 266 267 269 262 247 261 217 223 202 170 181 191 183 191 181 181 187 191 210 196 194 189 182 195 203 179 171 161 229
291 291 289 287 283 281 280 277 286 275 258 256 258 254 251 245 241 248 252 241 281 187 219 197 168 176 186 184 182 183 194 209 144 207 199 184 181 194 168 200 200 196 244
290 289 284 279 277 274 271 271 268 273 281 271 249 240 248 246 236 227 207 175 181 217 137 154 166 175 170 180 178 194 199 185 189 184 200 191 173 173 175 208 207 202 230
292 288 283 278 273 271 274 273 268 266 265 269 263 235 230 235 225 218 202 214 209 198 182 188 196 199 193 181 216 210 201 196 183 166 191 200 175 155 219 216 209 211 240
294 286 283 281 278 275 270 268 270 265 265 263 258 243 217 202 220 210 206 205 212 207 199 207 199 211 209 205 225 258 233 215 192 172 186 198 171 162 221 200 192 222 215
300 303 321 320 303 288 280 281 279 276 274 269 257 228 194 200 194 202 204 207 207 202 194 190 197 199 220 209 223 235 246 228 202 185 187 197 165 169 209 205 217 220 228
330 338 343 343 340 338 337 337 334 329 323 318 308 163 170 189 190 192 200 212 206 206 207 208 194 186 203 217 219 226 257 226 204 189 187 190 179 176 179 173 201 222 223
345 349 352 349 348 343 349 349 349 345 344 343 12 62 145 178 190 200 199 197 198 195 200 202 199 191 203 220 206 215 238 233 204 166 158 160 145 142 162 178 193 224 240
355 359 0 358 357 355 357 355 354 353 353 354 353 13 94 162 178 200 211 185 187 192 201 205 206 198 204 217 213 233 239 243 172 162 151 152 147 150 151 183 228 243 234
5 8 6 3 358 359 355 1 360 357 356 359 356 354 355 77 155 178 198 234 183 191 199 201 207 204 208 212 220 229 242 200 203 160 159 138 145 147 168 224 228 233 225
13 11 8 4 3 360 1 3 2 0 359 356 357 356 353 349 310 202 201 164 167 178 185 194 199 200 209 213 232 211 195 173 170 200 157 142 138 153 189 247 260 221 164